• In Latvia
  • List of Countries
  • For 7 days
  • Water Temperature
  • Satellite Maps
  • Weather Map
  • Weather Widgets
  • user-avatar
    Login

    Hourly Weather Quito

    Today, 20 October, Friday

    Time Temperature Precipitation Wind Pressure Humidity
    00:00 +23°C° 0 mm 1 mps 622 mmHg 44%
    01:00 +22°C° 0 mm 1 mps 622 mmHg 48%
    02:00 +22°C° 0 mm 1 mps 622 mmHg 50%
    03:00 +21°C° 0 mm 1 mps 622 mmHg 52%
    04:00 +21°C° 0 mm 1 mps 622 mmHg 55%
    05:00 +21°C° 0 mm 2 mps 623 mmHg 55%
    06:00 +21°C° 0 mm 2 mps 623 mmHg 55%
    07:00 +24°C° 0 mm 2 mps 625 mmHg 55%
    08:00 +26°C° 0 mm 2 mps 625 mmHg 47%
    09:00 +28°C° 0 mm 2 mps 626 mmHg 38%
    10:00 +30°C° 0 mm 2 mps 627 mmHg 30%
    11:00 +31°C° 0 mm 2 mps 626 mmHg 28%
    12:00 +32°C° 0 mm 2 mps 626 mmHg 25%
    13:00 +32°C° 0 mm 2 mps 625 mmHg 23%
    14:00 +33°C° 0 mm 3 mps 625 mmHg 27%
    15:00 +31°C° 0 mm 3 mps 624 mmHg 30%
    16:00 +30°C° 0 mm 3 mps 624 mmHg 34%
    17:00 +28°C° 0 mm 2 mps 624 mmHg 38%
    18:00 +27°C° 0 mm 2 mps 624 mmHg 43%
    19:00 +25°C° 0 mm 2 mps 624 mmHg 47%
    20:00 +25°C° 0 mm 1 mps 624 mmHg 50%
    21:00 +24°C° 0 mm 1 mps 624 mmHg 53%
    22:00 +23°C° 0 mm 1 mps 624 mmHg 56%
    23:00 +22°C° 0 mm 1 mps 624 mmHg 59%

    Tomorrow, 21 October, Saturday

    Time Temperature Precipitation Wind Pressure Humidity
    00:00 +22°C° 0 mm 1 mps 623 mmHg 61%
    01:00 +21°C° 0 mm 1 mps 623 mmHg 64%
    02:00 +20°C° 0.2 mm 1 mps 623 mmHg 67%
    03:00 +20°C° 0.2 mm 1 mps 623 mmHg 70%
    04:00 +19°C° 0.2 mm 1 mps 622 mmHg 73%
    05:00 +20°C° 0.7 mm 1 mps 623 mmHg 72%
    06:00 +21°C° 0.7 mm 1 mps 624 mmHg 71%
    07:00 +22°C° 0.7 mm 1 mps 624 mmHg 70%
    08:00 +25°C° 0.2 mm 1 mps 625 mmHg 60%
    09:00 +28°C° 0.2 mm 1 mps 626 mmHg 49%
    10:00 +31°C° 0.2 mm 1 mps 627 mmHg 39%
    11:00 +31°C° 0 mm 1 mps 627 mmHg 37%
    12:00 +31°C° 0 mm 2 mps 626 mmHg 36%
    13:00 +31°C° 0 mm 2 mps 625 mmHg 34%
    14:00 +30°C° 0 mm 2 mps 625 mmHg 35%
    15:00 +30°C° 0 mm 2 mps 624 mmHg 36%
    16:00 +30°C° 0 mm 2 mps 624 mmHg 37%
    17:00 +27°C° 0.6 mm 2 mps 624 mmHg 47%
    18:00 +25°C° 0.6 mm 2 mps 624 mmHg 56%
    19:00 +22°C° 0.6 mm 3 mps 623 mmHg 66%
    20:00 +21°C° 0.8 mm 2 mps 624 mmHg 71%
    21:00 +20°C° 0.8 mm 2 mps 624 mmHg 76%
    22:00 +20°C° 0.8 mm 2 mps 625 mmHg 81%
    23:00 +19°C° 0.9 mm 2 mps 624 mmHg 81%

    Day after tomorrow, 22 October, Sunday

    Time Temperature Precipitation Wind Pressure Humidity
    00:00 +20°C° 0.9 mm 1 mps 624 mmHg 81%
    01:00 +20°C° 0.9 mm 1 mps 624 mmHg 82%
    02:00 +20°C° 0.2 mm 1 mps 623 mmHg 83%
    03:00 +19°C° 0.2 mm 1 mps 623 mmHg 84%
    04:00 +19°C° 0.2 mm 1 mps 623 mmHg 85%
    05:00 +19°C° 0 mm 2 mps 623 mmHg 83%
    06:00 +19°C° 0 mm 2 mps 624 mmHg 81%
    07:00 +20°C° 0 mm 2 mps 624 mmHg 79%
    08:00 +23°C° 0 mm 2 mps 625 mmHg 68%
    09:00 +25°C° 0 mm 2 mps 625 mmHg 58%
    10:00 +27°C° 0 mm 2 mps 626 mmHg 48%
    11:00 +29°C° 0 mm 2 mps 626 mmHg 43%
    12:00 +30°C° 0 mm 1 mps 626 mmHg 39%
    13:00 +31°C° 0 mm 1 mps 625 mmHg 34%
    14:00 +30°C° 0 mm 2 mps 625 mmHg 36%
    15:00 +29°C° 0 mm 2 mps 624 mmHg 39%
    16:00 +28°C° 0 mm 2 mps 624 mmHg 41%
    17:00 +26°C° 3.1 mm 3 mps 624 mmHg 55%
    18:00 +22°C° 3.1 mm 3 mps 623 mmHg 69%
    19:00 +19°C° 3.1 mm 4 mps 623 mmHg 82%
    20:00 +19°C° 1.4 mm 3 mps 624 mmHg 83%
    21:00 +19°C° 1.4 mm 2 mps 624 mmHg 84%
    22:00 +20°C° 1.4 mm 1 mps 625 mmHg 85%
    23:00 +20°C° 0 mm 1 mps 624 mmHg 83%

    23 October, Monday

    Time Temperature Precipitation Wind Pressure Humidity
    00:00 +20°C° 0 mm 1 mps 623 mmHg 81%
    01:00 +20°C° 0 mm 1 mps 622 mmHg 79%
    02:00 +20°C° 0 mm 1 mps 622 mmHg 79%
    03:00 +20°C° 0 mm 1 mps 622 mmHg 78%
    04:00 +19°C° 0 mm 1 mps 622 mmHg 77%
    05:00 +20°C° 0.1 mm 1 mps 622 mmHg 77%
    06:00 +20°C° 0.1 mm 1 mps 623 mmHg 77%
    07:00 +20°C° 0.1 mm 2 mps 623 mmHg 77%
    08:00 +23°C° 0 mm 2 mps 624 mmHg 66%
    09:00 +26°C° 0 mm 2 mps 625 mmHg 55%
    10:00 +28°C° 0 mm 2 mps 625 mmHg 45%
    11:00 +29°C° 0 mm 2 mps 625 mmHg 41%
    12:00 +30°C° 0 mm 2 mps 625 mmHg 37%
    13:00 +31°C° 0 mm 2 mps 624 mmHg 33%
    14:00 +31°C° 0 mm 2 mps 624 mmHg 34%
    15:00 +30°C° 0 mm 2 mps 623 mmHg 35%
    16:00 +30°C° 0 mm 1 mps 623 mmHg 36%
    17:00 +28°C° 0.1 mm 1 mps 623 mmHg 42%
    18:00 +26°C° 0.1 mm 2 mps 622 mmHg 49%
    19:00 +24°C° 0.1 mm 2 mps 622 mmHg 56%
    20:00 +23°C° 0.2 mm 1 mps 622 mmHg 59%
    21:00 +22°C° 0.2 mm 1 mps 622 mmHg 63%
    22:00 +19°C° 0.2 mm 0 mps 622 mmHg 66%
    23:00 +21°C° 0.6 mm 1 mps 622 mmHg 70%

    24 October, Tuesday

    Time Temperature Precipitation Wind Pressure Humidity
    00:00 +20°C° 0.6 mm 1 mps 622 mmHg 75%
    01:00 +19°C° 0.6 mm 2 mps 621 mmHg 79%
    02:00 +20°C° 0 mm 1 mps 621 mmHg 79%
    03:00 +20°C° 0 mm 1 mps 621 mmHg 79%
    04:00 +20°C° 0 mm 1 mps 621 mmHg 79%
    05:00 +21°C° 0.1 mm 1 mps 622 mmHg 78%
    06:00 +21°C° 0.1 mm 1 mps 622 mmHg 77%
    07:00 +22°C° 0.1 mm 1 mps 623 mmHg 75%
    08:00 +25°C° 0 mm 1 mps 624 mmHg 63%
    09:00 +29°C° 0 mm 1 mps 625 mmHg 51%
    10:00 +30°C° 0 mm 0 mps 626 mmHg 39%
    11:00 +31°C° 0 mm 1 mps 625 mmHg 38%
    12:00 +31°C° 0 mm 1 mps 624 mmHg 36%
    13:00 +30°C° 0 mm 2 mps 623 mmHg 35%
    14:00 +29°C° 0.8 mm 2 mps 623 mmHg 42%
    15:00 +27°C° 0.8 mm 3 mps 622 mmHg 50%
    16:00 +26°C° 0.8 mm 3 mps 621 mmHg 57%
    17:00 +24°C° 1.5 mm 3 mps 621 mmHg 62%
    18:00 +23°C° 1.5 mm 2 mps 622 mmHg 68%
    19:00 +20°C° 1.5 mm 2 mps 622 mmHg 73%
    20:00 +20°C° 0.5 mm 2 mps 622 mmHg 74%
    21:00 +21°C° 0.5 mm 1 mps 622 mmHg 75%
    22:00 +21°C° 0.5 mm 1 mps 622 mmHg 76%
    23:00 +20°C° 0.9 mm 1 mps 622 mmHg 79%

    25 October, Wednesday

    Time Temperature Precipitation Wind Pressure Humidity
    00:00 +19°C° 0.9 mm 2 mps 622 mmHg 83%
    01:00 +18°C° 0.9 mm 2 mps 622 mmHg 87%
    02:00 +19°C° 0.4 mm 1 mps 622 mmHg 87%
    03:00 +19°C° 0.4 mm 1 mps 621 mmHg 88%
    04:00 +19°C° 0.4 mm 1 mps 621 mmHg 88%
    05:00 +19°C° 0 mm 1 mps 622 mmHg 86%
    06:00 +20°C° 0 mm 1 mps 622 mmHg 84%
    07:00 +19°C° 0 mm 2 mps 623 mmHg 82%
    08:00 +21°C° 0.3 mm 2 mps 623 mmHg 73%
    09:00 +24°C° 0.3 mm 2 mps 624 mmHg 64%
    10:00 +27°C° 0.3 mm 2 mps 624 mmHg 55%
    11:00 +28°C° 0.3 mm 2 mps 624 mmHg 51%
    12:00 +29°C° 0.3 mm 1 mps 624 mmHg 47%
    13:00 +30°C° 0.3 mm 1 mps 623 mmHg 42%
    14:00 +30°C° 0 mm 1 mps 623 mmHg 43%
    15:00 +29°C° 0 mm 1 mps 623 mmHg 44%
    16:00 +28°C° 0 mm 1 mps 623 mmHg 45%
    17:00 +27°C° 0 mm 1 mps 623 mmHg 50%
    18:00 +25°C° 0 mm 1 mps 622 mmHg 55%
    19:00 +23°C° 0 mm 1 mps 622 mmHg 60%
    20:00 +21°C° 0.2 mm 2 mps 622 mmHg 66%
    21:00 +20°C° 0.2 mm 2 mps 622 mmHg 72%
    22:00 +19°C° 0.2 mm 3 mps 623 mmHg 79%
    23:00 +19°C° 0.1 mm 3 mps 622 mmHg 80%
    Show more